weather.gov     
National Weather Service

Regional Weather Roundup
NWS Homepage
This page is being discontinued on March 12, 2014.
The same data is available at this site. Please update your bookmarks.
Thank you, and we apologize for the inconvenience.
Please send an email to SR-SRH.Webmaster@noaa.gov with any concerns.


Current Version
Previous Version:    01  02  03  04  05  06  07  08  09  10  11  12  13  14  15  16  17  18  19  20  21  22  23  24  25  26  27  28  29  30  
   31  32  33  34  35  36  37  38  39  40  41  42  43  44  45  46  47  48  49  50  51  52  53  54  55  56  57  58  59  60  
[Printable]
233
ASUS44 KMEG 302010
RWRMEG
MEMPHIS CWA HOURLY WEATHER ROUNDUP
NATIONAL WEATHER SERVICE MEMPHIS TN
300 PM CDT TUE SEP 30 2014

...WEST TENNESSEE...

CITY           SKY/WX    TMP DP  RH WIND       PRES   REMARKS
MEMPHIS INTL   MOSUNNY   88  57  34 CALM      29.88F
NWS MEMPHIS      N/A     86 N/A N/A MISG        N/A
JACKSON        MOSUNNY   86  57  37 VRB3      29.90F
LEXINGTON      SUNNY     84  55  37 SE5       29.89F
SAVANNAH       PTSUNNY   84  59  42 N3        29.90F
DYERSBURG      SUNNY     84  54  34 E6        29.90F
UNION CITY     SUNNY     84  50  30 CALM      29.89F
PARIS          MOSUNNY   84  52  32 NE6       29.90F
HUNTINGDON     SUNNY     85  51  30 VRB3      29.90


...EASTERN ARKANSAS...

CITY           SKY/WX    TMP DP  RH WIND       PRES   REMARKS
JONESBORO      PTSUNNY   87  55  33 E6        29.87F
WEST MEMPHIS   PTSUNNY   86  61  42 CALM      29.87F
BATESVILLE     SUNNY     90  52  27 E7        29.87F
NEWPORT        SUNNY     89  55  31 VRB6      29.89F
WALNUT RIDGE   PTSUNNY   84  55  37 SE3       29.87F
BLYTHEVILLE    MOSUNNY   88  59  37 SW5       29.89F
SEARCY         SUNNY     87  53  31 CALM      29.89F
STUTTGART      MOSUNNY  N/A N/A N/A E5        29.88F
PINE BLUFF     MOSUNNY   86  57  37 S6        29.87F
MONTICELLO     MOSUNNY   88  59  37 N3        29.86F


...NORTH MISSISSIPPI...

CITY           SKY/WX    TMP DP  RH WIND       PRES   REMARKS
TUPELO         SUNNY     87  57  35 SE6       29.88F
OXFORD         PTSUNNY   82  61  47 N5        29.90F
OLIVE BRANCH   PTSUNNY   84  63  48 E5        29.89F
TUNICA         MOSUNNY   88  55  33 CALM      29.87F
CLARKSDALE     SUNNY     88  57  35 E3        29.87F
CORINTH        SUNNY     86  55  35 VRB6      29.88F
GRENADA        MOSUNNY   86  59  39 E6        29.88F
GREENWOOD      MOSUNNY   88  62  41 CALM      29.86F
COLUMBUS       SUNNY     85  61  44 SW3       29.88F
STARKVILLE     FAIR      86  59  39 SE3       29.88F HAZE
GOLDEN TRIANGL PTSUNNY   86  61  42 NE7       29.88F


...SOUTHEAST MISSOURI...

CITY           SKY/WX    TMP DP  RH WIND       PRES   REMARKS
WEST PLAINS    PTSUNNY   82  52  35 CALM      29.93F
POPLAR BLUFF   SUNNY     86  51  29 N8        29.88F
CAPE GIRARDEAU SUNNY     86  53  32 NE5       29.89F


...NORTHWEST ALABAMA...

CITY           SKY/WX    TMP DP  RH WIND       PRES   REMARKS
MUSCLE SHOALS  MOSUNNY   88  56  33 VRB6      29.91F


...MIDDLE TENNESSEE...

CITY           SKY/WX    TMP DP  RH WIND       PRES   REMARKS
NASHVILLE      MOSUNNY   87  50  27 NE10      29.90F
CLARKSVILLE    MOSUNNY   87  51  28 VRB5      29.89F
DICKSON        SUNNY     84  50  30 N7        29.91F
COLUMBIA       MOSUNNY   84  57  39 N3        29.89F
LEWISBURG      PTSUNNY   84  60  44 NE3       29.90F


...WESTERN KENTUCKY...

CITY           SKY/WX    TMP DP  RH WIND       PRES   REMARKS
PADUCAH        MOSUNNY   86  53  32 VRB5      29.90F
FORT CAMPBELL  MOSUNNY   86  52  31 VRB3      29.89F


...CENTRAL ARKANSAS...

CITY           SKY/WX    TMP DP  RH WIND       PRES   REMARKS
LITTLE ROCK    PTSUNNY   88  55  32 E5        29.87F


SKY/WX REPORTED AS FAIR MEANS FEW OR NO CLOUDS BELOW
12 THOUSAND FEET.





U.S. Dept. of Commerce
NOAA National Weather Service
1325 East West Highway
Silver Spring, MD 20910
E-mail: w-nws.webmaster@noaa.gov
Page last modified: May 16, 2007
NATIONAL WEATHER SERVICE: for Safety, for Work, for Fun - FOR LIFE